TimeAEST,TemperatureF,Dew PointF,Humidity,Sea Level PressureIn,VisibilityMPH,Wind Direction,Wind SpeedMPH,Gust SpeedMPH,PrecipitationIn,Events,Conditions,WindDirDegrees,DateUTC
12:00 AM,75,69,77,30.07,,East,25.3,,,,,100,2013-10-19 14:00:00
12:00 AM,75.2,69.8,83,30.06,-9999.0,East,25.3,-,N/A,,Unknown,100,2013-10-19 14:00:00
12:30 AM,75.2,68.0,78,30.06,-9999.0,ESE,25.3,-,N/A,,Unknown,110,2013-10-19 14:30:00
1:00 AM,75.2,68.0,78,30.06,-9999.0,ESE,23.0,-,N/A,,Unknown,110,2013-10-19 15:00:00
1:30 AM,75.2,69.8,83,30.04,-9999.0,ESE,21.9,-,N/A,,Unknown,110,2013-10-19 15:30:00
2:00 AM,75.2,68.0,78,30.04,-9999.0,ESE,20.7,-,N/A,,Unknown,110,2013-10-19 16:00:00
2:30 AM,75.2,68.0,78,30.04,-9999.0,ESE,19.6,-,N/A,,Unknown,110,2013-10-19 16:30:00
3:00 AM,74,68,75,30.03,,ESE,20.7,,,,,110,2013-10-19 17:00:00
3:00 AM,73.4,68.0,83,30.04,-9999.0,ESE,20.7,-,N/A,,Unknown,110,2013-10-19 17:00:00
3:30 AM,75.2,68.0,78,30.04,-9999.0,ESE,20.7,-,N/A,,Unknown,110,2013-10-19 17:30:00
4:00 AM,73.4,64.4,73,30.04,-9999.0,ESE,21.9,-,N/A,,Unknown,110,2013-10-19 18:00:00
4:30 AM,73.4,66.2,78,30.04,-9999.0,ESE,19.6,-,N/A,,Unknown,120,2013-10-19 18:30:00
5:00 AM,73.4,66.2,78,30.04,-9999.0,ESE,20.7,-,N/A,,Unknown,120,2013-10-19 19:00:00
5:30 AM,75.2,66.2,73,30.04,-9999.0,ESE,18.4,-,N/A,,Unknown,110,2013-10-19 19:30:00
6:00 AM,74,67,74,30.06,,ESE,17.3,,,,,110,2013-10-19 20:00:00
6:00 AM,75.2,68.0,78,30.06,-9999.0,ESE,17.3,-,N/A,,Unknown,110,2013-10-19 20:00:00
6:30 AM,77.0,66.2,69,30.06,-9999.0,ESE,19.6,-,N/A,,Unknown,110,2013-10-19 20:30:00
7:00 AM,77.0,68.0,74,30.06,-9999.0,ESE,18.4,-,N/A,,Unknown,120,2013-10-19 21:00:00
7:30 AM,78.8,68.0,69,30.06,-9999.0,ESE,17.3,-,N/A,,Unknown,120,2013-10-19 21:30:00
8:00 AM,77.0,69.8,78,30.06,-9999.0,ESE,21.9,-,N/A,,Unknown,110,2013-10-19 22:00:00
8:30 AM,78.8,69.8,74,30.06,-9999.0,ESE,21.9,-,N/A,,Unknown,110,2013-10-19 22:30:00
9:00 AM,80,69,61,30.09,,ESE,23.0,,,,,120,2013-10-19 23:00:00
9:00 AM,80.6,69.8,70,30.09,-9999.0,ESE,23.0,-,N/A,,Unknown,120,2013-10-19 23:00:00
9:30 AM,80.6,69.8,70,30.09,-9999.0,ESE,19.6,-,N/A,,Unknown,120,2013-10-19 23:30:00
10:00 AM,80.6,69.8,70,30.06,-9999.0,ESE,21.9,-,N/A,,Unknown,120,2013-10-20 00:00:00
10:30 AM,80.6,69.8,70,30.06,-9999.0,ESE,21.9,-,N/A,,Unknown,120,2013-10-20 00:30:00
11:00 AM,82.4,69.8,66,30.06,-9999.0,ESE,20.7,-,N/A,,Unknown,120,2013-10-20 01:00:00
11:30 AM,82.4,68.0,62,30.04,-9999.0,ESE,20.7,-,N/A,,Unknown,120,2013-10-20 01:30:00
12:00 PM,81,69,59,30.05,,ESE,20.7,,,,,120,2013-10-20 02:00:00
12:00 PM,80.6,69.8,70,30.04,-9999.0,ESE,20.7,-,N/A,,Unknown,120,2013-10-20 02:00:00
12:30 PM,80.6,68.0,65,30.04,-9999.0,ESE,19.6,-,N/A,,Unknown,120,2013-10-20 02:30:00
1:00 PM,80.6,69.8,70,30.01,-9999.0,ESE,19.6,-,N/A,,Unknown,110,2013-10-20 03:00:00
1:30 PM,80.6,69.8,70,30.01,-9999.0,ESE,20.7,-,N/A,,Unknown,110,2013-10-20 03:30:00
2:00 PM,78.8,68.0,69,29.98,-9999.0,ESE,20.7,-,N/A,,Unknown,110,2013-10-20 04:00:00
2:30 PM,78.8,68.0,69,29.98,-9999.0,ESE,18.4,-,N/A,,Unknown,110,2013-10-20 04:30:00
3:00 PM,79,69,65,29.97,,ESE,20.7,,,,,110,2013-10-20 05:00:00
3:00 PM,78.8,69.8,74,29.98,-9999.0,ESE,20.7,-,N/A,,Unknown,110,2013-10-20 05:00:00
3:30 PM,78.8,69.8,74,29.98,-9999.0,ESE,19.6,-,N/A,,Unknown,120,2013-10-20 05:30:00
4:00 PM,78.8,69.8,74,29.98,-9999.0,ESE,20.7,-,N/A,,Unknown,110,2013-10-20 06:00:00
4:30 PM,77.0,69.8,78,29.98,-9999.0,ESE,20.7,-,N/A,,Unknown,110,2013-10-20 06:30:00
5:00 PM,77.0,69.8,78,29.98,-9999.0,ESE,21.9,-,N/A,,Unknown,110,2013-10-20 07:00:00
5:30 PM,75.2,69.8,83,29.98,-9999.0,ESE,23.0,-,N/A,,Unknown,110,2013-10-20 07:30:00
6:00 PM,75.2,69.8,83,30.01,-9999.0,ESE,21.9,-,N/A,,Unknown,110,2013-10-20 08:00:00
6:30 PM,75.2,68.0,78,30.01,-9999.0,ESE,20.7,-,N/A,,Unknown,120,2013-10-20 08:30:00
7:00 PM,75.2,68.0,78,30.01,-9999.0,ESE,20.7,-,N/A,,Unknown,110,2013-10-20 09:00:00
7:30 PM,75.2,68.0,78,30.01,-9999.0,ESE,21.9,-,N/A,,Unknown,110,2013-10-20 09:30:00
8:00 PM,75.2,69.8,83,30.01,-9999.0,ESE,21.9,-,N/A,,Unknown,120,2013-10-20 10:00:00
8:30 PM,75.2,68.0,78,30.01,-9999.0,ESE,20.7,-,N/A,,Unknown,120,2013-10-20 10:30:00
9:00 PM,75,68,74,30.04,,ESE,23.0,,,,,120,2013-10-20 11:00:00
9:00 PM,75.2,68.0,78,30.04,-9999.0,ESE,23.0,-,N/A,,Unknown,120,2013-10-20 11:00:00
9:30 PM,75.2,66.2,73,30.04,-9999.0,ESE,23.0,-,N/A,,Unknown,120,2013-10-20 11:30:00
10:00 PM,75.2,69.8,83,30.04,-9999.0,ESE,23.0,-,N/A,,Unknown,120,2013-10-20 12:00:00
10:30 PM,75.2,69.8,83,30.04,-9999.0,SE,23.0,-,N/A,,Unknown,130,2013-10-20 12:30:00
11:00 PM,75.2,68.0,78,30.01,-9999.0,ESE,24.2,-,N/A,,Unknown,120,2013-10-20 13:00:00
11:30 PM,75.2,68.0,78,30.01,-9999.0,ESE,23.0,-,N/A,,Unknown,120,2013-10-20 13:30:00